Flag for U.S.A. Weather past 2 weeks in Mountain View, California, U.S.A.

Now
62 °F

Sunny.


Feels Like: 62 °F
Forecast: 51 / 66 °F
Wind: 17 mph from North

Location: Moffett Field

Current Time: Apr 20, 2015 at 7:17:33 PM

Latest Report: Apr 20, 2015 at 5:56 PM


Visibility: 10 mi

Pressure: 29.85 "Hg

Humidity: 65%

Dew point: 50 °F

Location of Mountain ViewLocation

Historic Weather in Mountain View — Graph

°F

Mountain View temperature yesterday

Maximum temperature yesterday: 66 °F (at 1:56 PM)
Minimum temperature yesterday: 52 °F (at 6:56 AM)
Average temperature yesterday: 58 °F

Past Weeks' High & Low Weather Summary

 TemperatureHumidityPressure
High80 °F (Apr 16, 3:56 PM)94% (Apr 7, 8:01 AM)30.36 "Hg (Apr 7, 8:01 AM)
Low42 °F (Apr 6, 5:56 AM)17% (Apr 16, 3:56 PM)29.81 "Hg (Apr 7, 4:56 AM)
Average58 °F59%30.04 "Hg
* Reported Apr 5 5:56 PM — Apr 20 5:56 PM, Mountain View, Weather by CustomWeather, © 2015

Note: Actual official high and low records may vary slightly from our data, if they occured in-between our weather recording intervals... More about our weather records

Advertising

Mountain View weather history for previous 24 hours

 ConditionsComfort  
Time TempWeatherWind HumidityBarometerVisibility
5:56 PM
Mon, Apr 20
62 °FSunny.17 mph65%29.85 "Hg10 mi
4:56 PM64 °FSunny.15 mph65%29.85 "Hg10 mi
3:56 PM65 °FSunny.18 mph63%29.85 "Hg10 mi
2:56 PM64 °FSunny.15 mph65%29.87 "Hg10 mi
1:56 PM64 °FSunny.10 mph65%29.88 "Hg10 mi
12:56 PM63 °FSunny.No wind68%29.89 "Hg10 mi
11:56 AM63 °FPartly sunny.6 mph68%29.91 "Hg10 mi
10:56 AM60 °FOvercast.6 mph72%29.92 "Hg10 mi
9:56 AM58 °FOvercast.5 mph75%29.92 "Hg10 mi
8:56 AM57 °FOvercast.3 mph78%29.91 "Hg10 mi
7:56 AM56 °FOvercast.6 mph81%29.91 "Hg10 mi
6:56 AM56 °FOvercast.3 mph81%29.90 "Hg10 mi
5:56 AM56 °FOvercast.3 mph84%29.89 "Hg10 mi
4:56 AM56 °FOvercast.No wind81%29.89 "Hg10 mi
3:56 AM56 °FOvercast.No wind84%29.90 "Hg10 mi
2:56 AM56 °FOvercast.No wind84%29.90 "Hg10 mi
1:56 AM56 °FOvercast.No wind84%29.91 "Hg10 mi
12:56 AM56 °FOvercast.3 mph84%29.91 "Hg10 mi
11:56 PM
Sun, Apr 19
56 °FOvercast.3 mph84%29.92 "Hg10 mi
10:56 PM56 °FOvercast.6 mph84%29.92 "Hg10 mi
9:56 PM56 °FPassing clouds.7 mph84%29.93 "Hg10 mi
8:56 PM57 °FPassing clouds.9 mph81%29.92 "Hg10 mi
7:56 PM58 °FSunny.10 mph78%29.90 "Hg10 mi
Weather by CustomWeather, © 2015

See weather overviewHow to use our weather pages